Wind_Speed
33 34 33 33 34 35 36 38 39 41 42 41 42 43 45 46 46 47 47 48 48 48 48 47 47 46 45 45 45 45 45 46 46 47 48 49 49 50
33 33 33 33 34 36 36 37 39 41 42 42 42 43 44 45 46 46 46 46 45 45 45 44 43 42 42 42 42 43 43 43 44 44 45 45 46 46
32 33 34 35 36 37 37 37 38 40 42 42 41 42 43 44 44 44 44 43 42 41 40 40 39 39 39 39 39 40 40 40 41 41 41 42 42 43
32 33 35 36 36 37 37 37 38 39 40 40 40 40 41 41 41 41 41 40 38 37 37 37 37 37 37 37 37 37 36 36 37 37 37 38 39 39
33 33 34 34 34 35 35 36 37 37 38 39 39 39 39 39 38 38 37 37 35 34 34 34 35 35 35 34 33 33 33 34 34 35 35 35 35 35
31 32 32 33 33 33 34 35 36 36 37 36 36 36 36 36 36 35 34 33 32 32 32 32 32 31 31 31 31 32 33 33 33 33 33 33 32 33
30 31 31 31 32 32 33 34 34 34 34 34 34 34 33 33 32 31 30 29 30 30 30 29 28 27 27 28 30 30 30 30 30 30 30 30 30 30
30 30 31 30 31 31 31 32 32 32 32 32 31 30 30 29 28 28 27 27 27 27 26 26 25 25 26 26 27 27 27 28 28 27 28 28 28 29
27 27 27 28 28 29 29 29 29 29 29 29 28 27 26 26 25 25 25 25 25 24 23 23 22 23 23 24 25 25 25 25 25 26 26 27 27 27
26 26 26 26 27 27 28 28 28 27 26 25 25 24 24 23 23 23 23 22 22 20 20 20 20 21 21 22 22 23 23 23 24 25 25 25 25 25
25 24 25 25 25 26 26 25 25 24 24 23 23 22 21 21 20 20 20 20 18 17 17 17 18 19 20 20 20 20 21 21 22 23 23 23 23 24
23 23 23 24 24 24 24 23 23 22 22 21 21 20 19 19 19 19 18 17 16 16 16 16 16 17 17 18 18 18 19 20 21 22 22 22 22 23
21 21 22 22 21 21 21 20 20 20 19 19 19 18 18 18 18 17 15 15 14 14 14 14 14 15 15 16 16 17 18 19 20 20 20 21 21 22
18 18 18 18 18 18 17 17 17 17 17 17 17 17 17 16 15 14 13 13 12 12 13 13 12 13 13 14 15 16 17 18 18 19 19 20 21 21
16 16 16 16 16 16 15 15 15 15 15 15 15 15 15 14 13 12 11 10 10 10 10 10 10 10 11 12 14 15 16 17 18 19 19 20 20 21
13 13 14 14 14 14 14 14 14 14 14 14 14 13 12 11 10 9 8 8 8 8 8 7 7 8 9 11 13 14 15 16 17 18 19 19 20 21
11 11 12 12 12 13 13 13 13 13 13 12 12 10 9 8 8 7 7 6 6 5 5 5 5 6 8 9 11 13 14 15 17 18 19 19 20 22
10 10 11 11 11 11 11 12 12 11 11 10 9 8 7 7 6 5 5 4 3 3 2 2 4 5 7 9 11 12 14 15 16 18 19 20 21 21
9 9 10 10 11 11 11 11 10 9 9 8 7 6 5 5 4 4 2 2 1 1 2 3 4 5 7 9 10 12 14 15 16 18 19 20 21 22
8 9 9 10 10 10 10 9 8 7 7 6 5 4 3 3 2 2 1 2 3 3 4 4 5 6 7 9 10 12 14 15 17 18 19 20 21 22
8 9 9 10 10 9 9 8 6 5 5 4 3 3 2 2 2 2 3 4 4 4 5 5 6 7 8 9 11 12 14 15 17 18 20 20 21 22
9 9 10 10 10 9 8 7 6 5 4 3 2 2 2 2 3 4 5 5 5 5 5 6 7 8 9 10 11 13 14 16 18 19 20 21 22 23
10 10 10 10 10 10 9 8 6 5 4 3 3 3 4 4 5 5 5 5 5 5 6 6 7 8 9 10 12 13 15 16 17 19 20 21 23 24
Wind_Direction
261 263 266 269 274 277 278 280 281 283 284 285 287 289 290 291 292 292 292 293 294 295 295 295 294 294 294 293 292 291 291 290 289 288 287 286 285 284
264 267 270 274 277 278 280 282 282 284 286 288 289 290 291 293 293 293 294 295 296 296 296 296 295 294 294 294 294 294 294 292 291 290 290 290 288 287
268 271 274 277 279 280 281 282 284 286 288 289 291 292 294 294 294 295 296 296 296 297 297 296 296 296 296 296 296 296 295 295 294 294 293 293 293 292
272 274 277 278 280 281 283 285 287 288 290 291 292 293 294 295 296 297 297 297 297 297 297 297 297 297 297 297 298 298 298 298 299 299 298 298 297 296
274 276 277 279 282 283 285 287 288 289 290 291 292 294 294 295 296 297 297 297 297 297 298 298 299 299 300 300 300 301 302 302 302 302 302 302 301 300
276 277 278 282 284 285 286 287 288 289 290 292 292 293 295 295 296 297 297 297 298 298 298 299 300 300 301 303 304 304 305 305 306 306 305 306 306 305
278 280 283 284 285 286 286 288 289 290 291 292 293 294 295 296 296 297 298 298 299 299 300 300 301 301 303 305 307 308 309 309 310 310 310 311 310 310
280 282 283 284 285 286 287 288 289 291 292 292 293 294 295 296 297 298 299 300 300 301 301 302 303 305 308 310 311 313 313 314 315 316 317 317 317 316
282 282 283 284 286 287 289 290 291 292 293 293 294 295 296 296 297 298 299 300 300 302 303 305 307 311 313 315 317 318 319 321 321 322 323 323 323 323
282 283 284 285 287 288 289 290 292 293 295 295 295 296 296 296 296 297 298 300 301 302 304 307 310 314 318 320 322 324 325 326 327 328 328 329 330 330
283 284 286 287 288 290 291 292 292 293 293 293 294 294 295 296 297 298 299 300 301 303 305 308 312 316 320 323 325 328 330 332 333 334 334 334 335 336
285 286 287 289 291 292 293 293 292 292 292 292 292 292 293 295 297 299 299 298 300 304 307 309 312 316 321 325 328 332 335 337 339 340 341 341 341 342
288 289 290 292 292 293 293 293 293 293 293 292 291 292 292 295 297 298 296 296 300 303 307 309 312 317 324 329 334 337 338 341 344 346 348 349 350 350
291 292 293 294 295 295 295 296 295 295 295 294 293 293 294 295 296 295 294 295 298 302 307 311 315 321 328 335 340 344 346 348 350 352 354 356 358 359
295 296 298 298 298 297 297 297 297 298 297 296 295 296 296 296 296 296 294 295 299 302 306 310 316 324 331 338 344 349 352 354 356 357 359 1 3 4
300 301 302 301 300 300 300 300 300 302 302 301 301 302 300 298 297 296 295 295 299 302 305 311 319 329 339 345 349 353 357 360 2 3 4 5 6 5
305 306 308 308 306 304 304 304 304 305 305 306 307 307 305 303 301 299 297 298 301 301 306 316 330 344 353 355 357 1 3 5 7 7 9 9 9 8
312 314 315 315 314 313 311 309 307 306 306 308 310 310 308 308 307 304 303 303 303 313 334 351 0 5 7 6 7 9 10 12 12 12 12 11 10 9
324 323 322 322 322 321 319 317 314 310 308 308 309 310 311 312 316 317 316 324 352 45 50 45 32 24 20 18 17 17 17 16 15 14 13 11 11 10
336 335 334 334 333 331 329 326 323 318 315 312 312 314 319 325 334 353 39 81 91 83 73 58 43 34 30 26 23 19 17 16 15 14 14 13 12 11
354 352 349 348 347 345 343 340 335 331 328 326 326 330 345 8 48 83 94 98 93 84 72 58 48 40 33 28 23 19 17 15 14 13 12 11 11 10
7 4 1 360 359 360 359 357 356 355 355 358 10 36 66 81 93 99 100 97 89 79 68 57 47 39 32 27 24 21 18 15 13 10 9 8 8 7
14 13 12 11 12 12 14 17 19 24 35 53 72 83 89 92 97 99 96 90 82 74 63 53 44 37 30 26 21 18 15 12 10 7 6 5 5 4
Height
5784 5785 5786 5786 5786 5785 5785 5783 5782 5780 5780 5780 5779 5775 5772 5770 5767 5764 5761 5758 5755 5751 5748 5744 5741 5738 5734 5731 5728 5724 5721 5717 5714 5711 5707 5704 5701 5697
5776 5777 5778 5778 5778 5777 5776 5775 5773 5771 5770 5770 5768 5765 5762 5759 5756 5753 5750 5747 5743 5740 5737 5733 5730 5727 5723 5720 5716 5713 5709 5705 5702 5698 5694 5690 5687 5683
5768 5769 5769 5769 5769 5768 5767 5766 5764 5762 5760 5759 5757 5754 5751 5748 5745 5742 5739 5736 5733 5729 5726 5723 5720 5716 5713 5710 5706 5702 5698 5694 5690 5686 5682 5679 5675 5671
5761 5761 5761 5760 5760 5759 5758 5756 5755 5752 5750 5748 5747 5744 5741 5738 5735 5732 5729 5726 5723 5720 5717 5713 5710 5707 5704 5700 5696 5692 5688 5684 5680 5676 5672 5668 5664 5659
5753 5753 5752 5752 5751 5750 5749 5748 5746 5743 5741 5739 5737 5734 5732 5729 5726 5723 5720 5717 5714 5711 5708 5705 5702 5698 5695 5691 5687 5683 5679 5676 5671 5667 5663 5658 5654 5649
5745 5744 5744 5743 5743 5742 5740 5739 5736 5734 5732 5730 5728 5725 5723 5720 5717 5714 5711 5708 5706 5703 5701 5698 5694 5691 5687 5683 5680 5676 5672 5667 5663 5659 5654 5650 5645 5641
5737 5736 5736 5735 5734 5733 5731 5729 5727 5725 5723 5721 5719 5716 5714 5711 5708 5706 5703 5700 5698 5695 5693 5690 5687 5684 5680 5677 5673 5669 5664 5660 5656 5651 5647 5642 5638 5633
5728 5728 5728 5727 5726 5724 5723 5721 5719 5717 5715 5713 5710 5708 5706 5703 5700 5698 5696 5694 5691 5689 5686 5684 5681 5678 5675 5671 5667 5663 5658 5654 5649 5645 5640 5636 5631 5626
5721 5720 5720 5719 5717 5716 5714 5713 5711 5709 5707 5705 5703 5700 5698 5696 5694 5692 5689 5687 5685 5682 5680 5678 5675 5672 5669 5665 5661 5657 5653 5649 5644 5639 5635 5630 5625 5620
5714 5713 5712 5710 5709 5708 5707 5705 5703 5701 5700 5697 5696 5694 5692 5690 5688 5686 5684 5682 5679 5677 5675 5673 5670 5667 5664 5661 5657 5653 5649 5644 5640 5635 5630 5625 5620 5615
5706 5705 5704 5703 5702 5701 5699 5698 5696 5694 5693 5691 5689 5688 5686 5684 5682 5680 5678 5676 5675 5673 5671 5669 5666 5663 5660 5657 5654 5650 5646 5642 5637 5632 5627 5622 5617 5612
5700 5699 5698 5697 5695 5694 5693 5691 5690 5688 5687 5685 5684 5682 5680 5678 5677 5675 5673 5672 5670 5669 5667 5665 5663 5660 5657 5654 5651 5647 5643 5639 5634 5630 5625 5620 5615 5609
5694 5693 5692 5690 5689 5688 5687 5685 5684 5682 5681 5680 5678 5677 5675 5674 5672 5670 5669 5667 5666 5664 5663 5661 5659 5657 5654 5652 5648 5645 5641 5637 5632 5628 5623 5618 5613 5608
5688 5687 5686 5685 5684 5682 5681 5680 5679 5678 5676 5675 5674 5672 5671 5669 5667 5666 5665 5663 5662 5661 5660 5658 5656 5654 5652 5649 5646 5643 5639 5635 5631 5627 5622 5617 5612 5607
5684 5683 5682 5681 5679 5678 5677 5676 5675 5673 5672 5671 5669 5668 5666 5665 5663 5662 5661 5660 5659 5658 5657 5656 5654 5652 5650 5648 5645 5642 5638 5634 5630 5626 5621 5617 5612 5607
5680 5679 5678 5677 5676 5674 5673 5672 5670 5669 5668 5667 5665 5664 5662 5661 5660 5659 5658 5658 5657 5656 5655 5654 5653 5651 5649 5647 5644 5641 5638 5634 5630 5626 5621 5617 5612 5607
5678 5677 5675 5674 5672 5671 5670 5668 5667 5666 5664 5663 5662 5660 5659 5658 5657 5657 5656 5655 5655 5654 5654 5653 5651 5650 5648 5646 5644 5641 5638 5634 5630 5626 5622 5617 5613 5608
5675 5674 5673 5671 5670 5668 5667 5665 5664 5662 5661 5660 5659 5658 5657 5656 5656 5655 5654 5654 5654 5653 5653 5652 5651 5650 5648 5646 5644 5641 5638 5635 5631 5627 5623 5618 5614 5609
5673 5672 5671 5669 5667 5666 5664 5662 5661 5660 5659 5658 5657 5656 5656 5655 5654 5654 5653 5653 5653 5652 5652 5651 5651 5650 5648 5646 5644 5642 5639 5635 5632 5628 5624 5619 5615 5610
5672 5671 5669 5667 5665 5664 5662 5660 5659 5658 5657 5656 5656 5655 5654 5654 5653 5653 5653 5653 5652 5652 5652 5652 5651 5650 5648 5647 5645 5642 5639 5636 5632 5629 5625 5620 5616 5611
5671 5670 5668 5666 5664 5662 5661 5659 5658 5657 5656 5655 5655 5654 5654 5654 5653 5653 5653 5653 5653 5653 5653 5652 5651 5650 5649 5647 5645 5643 5640 5636 5633 5629 5625 5621 5617 5612
5671 5670 5668 5666 5664 5662 5660 5659 5657 5656 5655 5655 5655 5654 5654 5654 5654 5654 5654 5654 5654 5654 5653 5653 5652 5651 5649 5648 5646 5643 5640 5637 5633 5629 5625 5621 5617 5612
5672 5670 5668 5666 5664 5662 5661 5659 5658 5657 5656 5655 5655 5655 5655 5655 5655 5655 5655 5655 5655 5655 5654 5654 5653 5652 5650 5648 5646 5643 5640 5637 5634 5630 5626 5621 5617 5613